This is the latest recevied weather packets stored in our database for station/object K1LVA. If no packets are shown the sender has not sent any weather packets the latest 10 day(s).
| Time | Temp. | Humidity | Pressure | Rain* | Wind** | Luminosity | Snow |
|---|---|---|---|---|---|---|---|
| 1778190718 | 25.56° C | 77% | 1009.1 hPa | 0 mm | - | 157 W/m² | - |
| 1778190415 | 25.56° C | 77% | 1009.3 hPa | 0 mm | - | 227 W/m² | - |
| 1778190111 | 25.56° C | 78% | 1009.3 hPa | 0 mm | - | 251 W/m² | - |
| 1778189807 | 25.56° C | 78% | 1009.2 hPa | 0 mm | - | 401 W/m² | - |
| 1778189505 | 26.11° C | 77% | 1009.3 hPa | 0 mm | - | 408 W/m² | - |
| 1778189201 | 26.11° C | 78% | 1009.2 hPa | 0 mm | - | 442 W/m² | - |
| 1778188898 | 25.56° C | 79% | 1009.1 hPa | 0 mm | - | 449 W/m² | - |
| 1778188595 | 25° C | 80% | 1009.3 hPa | 0 mm | - | 545 W/m² | - |
| 1778188290 | 24.44° C | 83% | 1009.4 hPa | 0 mm | - | 655 W/m² | - |
| 1778187988 | 24.44° C | 84% | 1009.6 hPa | 0 mm | - | 208 W/m² | - |
| 1778187684 | 23.89° C | 84% | 1009.4 hPa | 0 mm | - | 194 W/m² | - |
| 1778187381 | 23.89° C | 84% | 1009.5 hPa | 0 mm | - | 209 W/m² | - |
| 1778187077 | 23.89° C | 85% | 1009.7 hPa | 0 mm | - | 129 W/m² | - |
| 1778186774 | 23.89° C | 86% | 1009.8 hPa | 0 mm | - | 106 W/m² | - |
| 1778186471 | 23.89° C | 84% | 1009.6 hPa | 0 mm | - | 113 W/m² | - |
| 1778186169 | 23.89° C | 84% | 1009.6 hPa | 0 mm | - | 164 W/m² | - |
| 1778185867 | 23.89° C | 84% | 1009.6 hPa | 0 mm | - | 127 W/m² | - |
| 1778185562 | 23.89° C | 83% | 1009.7 hPa | 0 mm | - | 89 W/m² | - |
| 1778185258 | 24.44° C | 83% | 1009.5 hPa | 0 mm | - | 187 W/m² | - |
| 1778184954 | 24.44° C | 84% | 1009.6 hPa | 0 mm | - | 225 W/m² | - |
| 1778184651 | 24.44° C | 83% | 1009.9 hPa | 0 mm | - | 180 W/m² | - |
| 1778184346 | 24.44° C | 83% | 1009.8 hPa | 0 mm | - | 290 W/m² | - |
| 1778184042 | 25° C | 81% | 1009.6 hPa | 0 mm | - | 209 W/m² | - |
| 1778183740 | 25.56° C | 81% | 1009.7 hPa | 0 mm | - | 248 W/m² | - |
| 1778183437 | 25.56° C | 79% | 1009.5 hPa | 0 mm | - | 713 W/m² | - |
* Rain latest hour (hover to see other rain measurements)
** Current wind speed in m/s (hover to see current wind gust speed)